Location: Saluda
(35.2377°N, 82.3468°W)
Time: 16:59:20
(UTC+00:00)

Explorer 11/Cluster Stage 4 - Pass Details

Date: 07 October 2022
Orbit: 466 x 1247 km, 28.8° (Epoch: 08 December)

Event Time Altitude Azimuth Distance (km) Brightness Sun altitude
Rises 12:46:07 0° 204° (SSW) 3,837 10.1 14.5°
Reaches altitude 10° 12:49:56 10° 184° (S) 3,011 9.8 15.3°
Maximum altitude 12:54:23 17° 148° (SSE) 2,651 10.3 16.1°
Drops below altitude 10° 12:59:04 10° 113° (ESE) 3,195 12.4 17.0°
Sets 13:03:17 0° 94° (E) 4,183 11.7 17.8°
